"datetime","# probes","# resolvers","can_ipv6","can_ipv6_prbs","can_tcp","can_tcp_prbs","can_tcp6","can_tcp6_prbs","does_ecs","does_ecs_prbs","does_flagday","does_flagday_prbs","does_rov4","does_rov4_prbs","does_rov6","does_rov6_prbs","does_qnamemin","doesnt_qnamemin","does_qnamemin_prbs","doesnt_qnamemin_prbs","does_nxdomain","doesnt_nxdomain","does_nxdomain_prbs","doesnt_nxdomain_prbs","has_ta_19036","hasnt_ta_19036","has_ta_19036_prbs","hasnt_ta_19036_prbs","has_ta_20326","hasnt_ta_20326","has_ta_20326_prbs","hasnt_ta_20326_prbs","can_rsamd5","cannot_rsamd5","broken_rsamd5","can_rsamd5_prbs","cannot_rsamd5_prbs","broken_rsamd5_prbs","can_dsa","cannot_dsa","broken_dsa","can_dsa_prbs","cannot_dsa_prbs","broken_dsa_prbs","can_rsasha1","cannot_rsasha1","broken_rsasha1","can_rsasha1_prbs","cannot_rsasha1_prbs","broken_rsasha1_prbs","can_dsansec3","cannot_dsansec3","broken_dsansec3","can_dsansec3_prbs","cannot_dsansec3_prbs","broken_dsansec3_prbs","can_rsansec3","cannot_rsansec3","broken_rsansec3","can_rsansec3_prbs","cannot_rsansec3_prbs","broken_rsansec3_prbs","can_rsasha256","cannot_rsasha256","broken_rsasha256","can_rsasha256_prbs","cannot_rsasha256_prbs","broken_rsasha256_prbs","can_rsasha512","cannot_rsasha512","broken_rsasha512","can_rsasha512_prbs","cannot_rsasha512_prbs","broken_rsasha512_prbs","can_eccgost","cannot_eccgost","broken_eccgost","can_eccgost_prbs","cannot_eccgost_prbs","broken_eccgost_prbs","can_ecdsa256","cannot_ecdsa256","broken_ecdsa256","can_ecdsa256_prbs","cannot_ecdsa256_prbs","broken_ecdsa256_prbs","can_ecdsa384","cannot_ecdsa384","broken_ecdsa384","can_ecdsa384_prbs","cannot_ecdsa384_prbs","broken_ecdsa384_prbs","can_ed25519","cannot_ed25519","broken_ed25519","can_ed25519_prbs","cannot_ed25519_prbs","broken_ed25519_prbs","can_ed448","cannot_ed448","broken_ed448","can_ed448_prbs","cannot_ed448_prbs","broken_ed448_prbs","can_gost","cannot_gost","broken_gost","can_gost_prbs","cannot_gost_prbs","broken_gost_prbs","can_sha384","cannot_sha384","broken_sha384","can_sha384_prbs","cannot_sha384_prbs","broken_sha384_prbs","is_internal","is_forwarding","is_external","is_internal_prbs","is_forwarding_prbs","is_external_prbs"
2017-06-20T23:59:59Z,251,394,197,140,392,250,190,134,115,91,0,0,0,0,0,0,2,391,1,249,1,389,1,248,0,0,0,0,0,0,0,0,13,294,86,12,195,67,44,350,0,35,224,0,131,262,0,100,170,0,43,351,0,34,225,0,130,263,0,98,171,0,130,263,0,98,171,0,130,263,0,98,171,0,0,394,0,4,251,0,130,263,0,97,171,0,130,263,0,97,171,0,0,394,0,0,251,0,0,393,1,0,251,1,89,304,0,73,198,0,130,261,0,98,169,0,231,81,82,147,72,54
2017-06-21T23:59:59Z,253,404,200,141,400,252,192,134,121,93,0,0,0,0,0,0,0,403,0,252,1,399,1,250,0,0,0,0,0,0,0,0,12,303,88,11,197,68,46,358,0,36,225,0,135,268,0,102,170,0,46,358,0,36,225,0,134,269,0,101,171,0,134,269,0,101,171,0,134,269,0,101,171,0,0,404,0,4,253,0,133,270,0,100,171,0,133,270,0,100,171,0,0,404,0,0,253,0,0,404,0,0,253,0,90,313,0,73,200,0,133,268,0,100,169,0,237,85,82,148,74,54
2017-06-22T23:59:58Z,252,398,199,141,397,251,194,137,121,92,0,0,0,0,0,0,0,397,0,251,1,393,1,249,0,0,0,0,0,0,0,0,12,297,87,12,196,69,45,352,0,37,224,1,133,263,0,102,169,1,45,353,0,37,224,1,133,264,0,102,169,1,133,264,0,102,169,1,134,264,0,103,169,1,0,398,0,5,252,1,132,264,0,101,169,1,132,264,0,101,169,1,0,397,0,0,252,1,0,398,0,0,252,1,89,308,0,73,199,1,133,262,0,102,166,1,228,86,82,145,76,54
2017-06-23T23:59:59Z,251,398,199,139,396,250,194,135,123,93,0,0,0,0,0,0,0,397,0,250,1,393,1,248,0,0,0,0,0,0,0,0,13,298,85,12,197,66,47,350,0,37,223,0,133,263,0,100,170,0,46,352,0,36,223,0,133,264,0,100,170,0,133,264,0,100,170,0,134,264,0,101,170,0,0,398,0,4,251,0,131,265,0,98,171,0,131,265,0,98,171,0,0,397,0,0,251,0,0,398,0,0,251,0,88,309,0,71,200,0,132,263,0,99,168,0,227,87,82,143,76,54
2017-06-24T23:59:59Z,251,397,201,141,393,249,195,137,120,93,0,0,0,0,0,0,1,395,1,250,1,392,1,248,0,0,0,0,0,0,0,0,12,297,86,11,196,67,46,350,0,36,222,1,133,262,0,100,169,1,46,351,0,36,222,1,134,262,0,101,168,1,133,263,0,100,169,1,134,263,0,101,169,1,0,397,0,4,251,1,132,263,0,99,170,1,132,263,0,99,170,1,0,396,0,0,251,1,0,397,0,0,251,1,89,307,0,72,199,1,133,261,0,100,167,1,227,87,81,144,76,53
2017-06-25T23:59:59Z,250,396,200,140,395,249,194,135,119,91,0,0,0,0,0,0,2,393,1,248,1,391,1,247,0,0,0,0,0,0,0,0,13,296,85,12,195,66,47,349,0,37,220,1,133,262,0,100,168,1,45,351,0,36,222,1,133,262,0,100,168,1,133,262,0,100,168,1,134,262,0,101,168,1,0,396,0,5,250,1,132,263,0,99,169,1,132,263,0,99,169,1,0,396,0,0,250,1,0,396,0,0,250,1,89,306,0,72,198,1,133,260,0,100,166,1,230,85,81,146,73,53
2017-06-26T23:59:59Z,253,399,201,140,397,251,196,136,123,93,0,0,0,0,0,0,2,396,1,251,1,396,1,250,0,0,0,0,0,0,0,0,11,298,88,10,198,68,45,354,0,35,225,1,134,264,0,100,171,1,45,354,0,35,225,1,134,264,0,100,171,1,134,264,0,100,171,1,135,264,0,101,171,1,0,399,0,4,253,1,132,266,0,98,173,1,132,266,0,98,173,1,0,399,0,0,253,1,0,399,0,0,253,1,91,307,0,73,200,1,132,263,1,98,170,2,227,89,81,145,77,53
2017-06-27T23:59:59Z,252,401,199,139,400,251,193,135,123,94,0,0,0,0,0,0,0,400,0,251,1,396,1,249,0,0,0,0,0,0,0,0,12,301,85,11,198,66,46,355,0,36,223,1,132,268,0,99,171,1,45,355,0,35,224,1,132,267,0,99,171,1,132,267,0,99,171,1,133,268,0,100,171,1,0,401,0,4,252,1,130,270,0,97,173,1,130,270,0,97,173,1,0,401,0,0,252,1,0,401,0,0,252,1,88,311,0,71,201,1,131,266,0,98,170,1,232,88,79,145,76,52
2017-06-28T23:59:59Z,251,400,199,139,399,250,193,134,121,92,0,0,0,0,0,0,1,398,1,250,1,395,1,248,0,0,0,0,0,0,0,0,11,301,85,10,198,66,44,356,0,34,224,1,130,269,0,97,172,1,42,356,2,33,224,2,129,270,0,96,173,1,130,269,0,97,172,1,131,269,0,98,172,1,0,400,0,4,251,1,129,270,0,96,173,1,129,270,0,96,173,1,0,400,0,0,251,1,0,400,0,0,251,1,88,310,0,71,200,1,130,266,0,97,170,1,231,88,79,144,76,52
2017-06-29T23:59:59Z,254,405,201,140,404,253,195,135,116,89,0,0,0,0,0,0,3,401,2,252,1,402,1,252,0,0,0,0,0,0,0,0,13,304,85,12,200,65,46,359,0,36,225,1,133,271,0,99,173,1,45,360,0,35,226,1,134,270,0,100,172,1,132,272,0,100,173,1,135,270,0,101,172,1,0,405,0,4,254,1,128,276,0,96,176,1,129,275,0,96,176,1,0,405,0,0,254,1,0,405,0,0,254,1,91,312,0,73,201,1,130,271,0,98,172,1,236,88,79,148,76,52
2017-06-30T23:59:58Z,251,399,199,139,397,250,193,134,115,89,0,0,0,0,0,0,2,396,1,249,1,394,1,248,0,0,0,0,0,0,0,0,12,300,86,10,197,67,44,355,0,34,224,1,131,267,0,98,171,1,44,355,0,34,224,1,132,266,0,99,170,1,131,267,0,99,171,1,133,266,0,100,170,1,0,399,0,4,251,1,131,267,0,98,171,1,131,267,0,98,171,1,0,399,0,0,251,1,0,399,0,0,251,1,89,309,0,72,199,1,131,265,0,98,169,1,229,88,80,145,76,52
2017-07-01T23:59:59Z,251,401,200,138,399,249,195,134,121,91,0,0,0,0,0,0,5,395,3,247,1,398,1,249,0,0,0,0,0,0,0,0,15,300,85,13,197,65,49,352,0,38,221,1,135,265,0,99,170,1,46,355,0,35,223,1,136,264,0,100,169,1,136,264,0,100,169,1,137,264,0,101,169,1,0,401,0,4,251,1,133,267,0,97,172,1,133,267,0,97,172,1,0,401,0,0,251,1,0,401,0,0,251,1,91,309,0,72,199,1,134,264,0,98,169,1,231,86,82,146,74,53
2017-07-02T23:59:59Z,252,400,198,138,399,251,193,134,121,92,0,0,0,0,0,0,6,393,4,248,1,397,1,250,0,0,0,0,0,0,0,0,12,302,84,11,199,64,46,354,0,36,223,1,131,268,0,97,172,1,45,355,0,36,224,1,134,265,0,100,169,1,133,266,0,99,170,1,134,266,0,100,170,1,0,400,0,5,252,1,131,268,0,97,172,1,131,268,0,97,172,1,0,400,0,0,252,1,0,400,0,0,252,1,89,309,0,71,200,1,132,264,0,98,169,1,232,85,81,147,73,53
2017-07-03T23:59:59Z,247,396,197,136,394,245,191,131,125,93,0,0,0,0,0,0,3,392,2,245,1,391,1,244,0,0,0,0,0,0,0,0,12,296,86,11,193,65,46,350,0,36,218,1,133,262,0,98,166,1,45,351,0,35,219,1,133,262,0,98,166,1,132,263,0,98,167,1,134,262,0,99,166,1,0,396,0,4,247,1,131,264,0,96,168,1,131,264,0,96,168,1,0,396,0,0,247,1,0,396,0,0,247,1,90,304,0,71,195,1,132,260,0,97,165,1,226,87,81,141,75,53
2017-07-04T23:59:59Z,249,400,198,138,399,248,191,133,118,90,0,0,0,0,0,0,5,394,3,246,1,397,1,247,0,0,0,0,0,0,0,0,12,299,88,11,194,66,46,354,0,36,221,1,135,264,0,100,167,1,46,354,0,36,221,1,134,265,0,99,168,1,134,265,0,99,168,1,135,265,0,100,168,1,0,400,0,4,249,1,132,267,0,97,169,1,132,267,0,97,169,1,0,400,0,0,249,1,0,400,0,0,249,1,90,309,0,71,197,1,135,264,0,100,166,2,233,84,81,146,72,53
2017-07-05T23:59:59Z,249,400,198,138,399,248,193,134,117,90,0,0,0,0,0,0,2,397,1,247,1,397,1,247,0,0,0,0,0,0,0,0,13,300,86,12,195,65,48,352,0,38,220,0,135,264,0,100,167,0,48,352,0,38,220,0,135,264,0,100,167,0,134,265,0,100,168,0,136,264,0,101,167,0,0,400,0,4,249,0,132,267,0,97,169,0,132,267,0,97,169,0,0,400,0,0,249,0,0,400,0,0,249,0,87,312,0,69,200,0,135,264,0,100,166,0,232,87,79,144,75,52
2017-07-06T23:59:59Z,248,399,196,137,398,247,185,131,122,93,0,0,0,0,0,0,0,398,0,247,1,391,1,243,0,0,0,0,0,0,0,0,13,300,84,12,195,64,47,352,0,37,219,0,133,265,0,99,167,0,47,352,0,37,219,0,133,265,0,99,167,0,133,265,0,99,167,0,134,265,0,100,167,0,0,399,0,4,248,0,130,268,0,96,169,0,130,268,0,96,169,0,0,399,0,0,248,0,0,399,0,0,248,0,86,311,0,69,199,0,132,265,0,98,167,0,233,85,79,145,73,52
2017-07-07T23:59:59Z,251,406,196,137,405,250,191,133,118,92,0,0,0,0,0,0,3,402,2,249,1,401,1,248,0,0,0,0,0,0,0,0,15,306,83,14,198,63,49,357,0,39,220,0,134,271,0,100,170,0,47,359,0,37,222,0,134,271,0,100,170,0,134,271,0,100,170,0,135,271,0,101,170,0,0,406,0,4,251,0,132,273,0,98,171,0,132,273,0,98,171,0,0,406,0,0,251,0,0,406,0,0,251,0,87,317,0,70,202,0,134,270,0,100,169,0,240,85,79,149,72,52
2017-07-08T23:59:59Z,249,404,195,135,402,248,190,131,120,91,0,0,0,0,0,0,2,401,1,247,1,401,1,247,0,0,0,0,0,0,0,0,16,303,83,14,196,64,47,357,0,38,220,0,134,269,0,99,168,0,46,358,0,38,221,0,134,269,0,99,168,0,134,269,0,99,168,0,135,269,0,100,168,0,0,404,0,5,249,0,132,272,0,97,170,0,132,271,0,97,169,0,0,404,0,0,249,0,0,404,0,0,249,0,88,315,0,70,200,0,133,269,0,98,168,0,238,84,80,147,71,53
2017-07-09T23:59:59Z,251,408,200,137,402,249,195,133,118,90,0,0,0,0,0,0,3,404,2,249,1,403,2,248,0,0,0,0,0,0,0,0,15,304,87,14,197,65,49,359,0,39,221,1,139,268,0,101,168,0,48,360,0,38,222,1,141,266,0,103,166,0,140,267,0,102,167,0,141,267,0,103,167,0,0,408,0,4,251,0,138,270,0,100,169,0,138,269,0,100,168,0,0,408,0,0,251,0,0,408,0,0,251,0,92,315,0,72,200,0,139,267,0,101,167,1,240,84,82,148,71,54
2017-07-10T23:59:59Z,252,405,196,136,404,251,191,132,115,90,0,0,0,0,0,0,3,401,2,250,1,402,2,250,0,0,0,0,0,0,0,0,15,304,85,14,197,66,48,357,0,38,222,1,136,268,0,101,169,1,47,358,0,37,223,1,137,267,0,102,168,1,137,267,0,102,168,1,137,268,0,102,169,1,0,405,0,4,252,1,135,270,0,100,170,1,135,269,0,100,169,1,0,405,0,0,252,1,0,405,0,0,252,1,89,315,0,71,201,1,133,270,0,99,170,1,237,85,81,148,72,54
2017-07-11T23:59:59Z,251,401,197,137,400,250,192,133,123,93,0,0,0,0,0,0,2,398,1,249,1,399,1,249,0,0,0,0,0,0,0,0,15,298,87,14,194,66,49,352,0,39,220,0,138,262,0,103,166,0,47,354,0,37,222,0,137,263,0,102,167,0,137,263,0,102,167,0,138,263,0,103,167,0,0,401,0,4,251,0,136,265,0,101,168,0,136,264,0,101,167,0,0,401,0,0,251,0,0,401,0,0,251,0,90,310,0,72,199,0,134,265,0,100,168,0,231,87,81,146,75,54
2017-07-12T23:59:59Z,251,404,198,136,401,249,193,132,123,94,0,0,0,0,0,0,2,401,1,249,1,400,1,248,0,0,0,0,0,0,0,0,15,302,86,14,196,66,46,358,0,37,222,0,135,268,0,101,169,0,45,359,0,36,223,0,135,268,0,101,169,0,135,268,0,101,169,0,136,268,0,102,169,0,0,404,0,4,251,0,133,271,0,99,171,0,133,270,0,99,170,0,0,404,0,0,251,0,0,404,0,0,251,0,90,313,0,72,200,0,135,267,0,101,168,0,237,84,83,149,71,55
2017-07-13T23:59:59Z,251,402,198,137,401,250,193,133,122,93,0,0,0,0,0,0,0,401,0,250,1,396,1,247,0,0,0,0,0,0,0,0,13,296,92,12,194,70,47,355,0,37,222,0,141,260,0,105,166,0,47,355,0,37,222,0,140,261,0,104,167,0,140,261,0,104,167,0,141,261,0,105,167,0,0,402,0,4,251,0,138,264,0,102,169,0,138,263,0,102,168,0,0,402,0,0,251,0,0,402,0,0,251,0,94,307,0,75,198,0,139,261,0,103,167,0,232,84,84,147,71,55
2017-07-14T23:59:59Z,249,396,197,136,390,246,192,132,121,92,0,0,0,0,0,0,0,395,0,248,1,392,1,246,0,0,0,0,0,0,0,0,14,291,90,13,194,68,45,351,0,36,221,0,137,258,0,102,168,0,44,352,0,35,222,0,137,258,0,102,168,0,137,258,0,102,168,0,138,258,0,103,168,0,0,396,0,4,249,0,136,260,0,101,169,0,136,259,0,101,168,0,0,396,0,0,249,0,0,396,0,0,249,0,94,301,0,75,197,0,137,258,0,102,167,0,227,85,84,146,72,55
2017-07-15T23:59:59Z,251,401,197,137,399,249,191,132,127,97,0,0,0,0,0,0,2,398,1,249,1,397,1,248,0,0,0,0,0,0,0,0,15,296,89,14,195,68,47,354,0,37,222,0,139,261,0,103,168,0,46,355,0,36,223,0,140,260,0,104,167,0,139,261,0,103,168,0,140,261,0,104,168,0,0,401,0,4,251,0,137,264,0,101,170,0,137,263,0,101,169,0,0,401,0,0,251,0,0,401,0,0,251,0,93,307,0,74,199,0,138,262,0,102,168,0,233,84,82,149,70,54
2017-07-16T23:59:59Z,251,401,193,135,400,250,187,130,120,93,0,0,0,0,0,0,2,398,1,249,1,397,1,248,0,0,0,0,0,0,0,0,15,298,87,14,195,67,46,355,0,37,223,0,136,264,0,102,169,0,45,356,0,36,224,0,137,263,0,103,168,0,137,263,0,103,168,0,138,263,0,104,168,0,0,401,0,5,251,0,135,266,0,101,170,0,135,265,0,101,169,0,0,401,0,0,251,0,0,401,0,0,251,0,91,308,1,74,198,1,135,265,0,101,169,0,237,83,79,151,70,53
2017-07-17T23:59:59Z,256,412,199,138,411,255,192,132,125,95,0,0,0,0,0,0,6,405,3,252,1,408,1,253,0,0,0,0,0,0,0,0,14,306,91,13,199,70,45,367,0,35,229,0,140,271,0,104,172,0,45,367,0,35,229,0,139,272,0,103,173,0,139,272,0,103,173,0,140,272,0,104,173,0,0,412,0,4,256,0,136,276,0,100,176,0,136,275,0,100,175,0,0,412,0,0,256,0,0,412,0,0,256,0,94,317,0,75,203,0,139,271,0,103,172,0,240,86,84,152,72,55
2017-07-18T23:59:59Z,255,414,201,138,411,253,194,132,123,94,0,0,0,0,0,0,5,408,3,252,2,411,2,253,0,0,0,0,0,0,0,0,14,310,89,13,200,67,46,368,0,36,227,0,137,276,0,101,174,0,45,369,0,35,228,0,138,275,0,102,173,0,138,275,0,102,173,0,138,275,1,103,173,1,0,414,0,4,255,0,135,279,0,99,176,0,135,278,0,99,175,0,0,414,0,0,255,0,0,414,0,0,255,0,92,321,0,73,204,0,136,276,0,100,174,0,240,88,84,150,74,55
2017-07-19T23:59:59Z,252,403,194,137,401,250,188,132,122,94,0,0,0,0,0,0,0,402,0,251,1,401,1,250,0,0,0,0,0,0,0,0,14,303,85,13,196,66,44,359,0,34,225,0,132,270,0,99,171,0,44,359,0,34,225,0,131,271,0,98,172,0,131,271,0,98,172,0,132,271,0,99,172,0,0,403,0,4,252,0,129,274,0,96,174,0,129,273,0,96,173,0,0,403,0,0,252,0,0,403,0,0,252,0,87,315,0,70,201,0,130,272,0,97,172,0,239,87,77,150,73,52
2017-07-20T23:59:59Z,253,404,193,137,402,252,186,131,117,90,0,0,0,0,0,0,0,403,0,252,1,400,1,250,0,0,0,0,0,0,0,0,13,305,85,12,197,66,44,360,0,34,226,0,131,272,0,99,172,0,44,360,0,35,226,0,131,272,0,99,172,0,131,272,0,99,172,0,132,272,0,100,172,0,0,404,0,5,253,0,128,276,0,96,175,0,128,275,0,96,174,0,0,404,0,0,253,0,0,404,0,0,253,0,86,317,0,70,202,0,127,276,0,96,174,0,239,88,77,150,74,52
2017-07-21T23:59:59Z,253,401,196,139,400,252,190,134,124,97,0,0,0,0,0,0,0,400,0,252,1,399,1,251,0,0,0,0,0,0,0,0,15,299,86,13,195,67,45,356,0,34,225,0,134,266,0,100,170,0,44,357,0,33,226,0,132,268,0,98,172,0,132,268,0,98,172,0,133,268,0,99,172,0,0,401,0,3,253,0,130,271,0,96,174,0,130,270,0,96,173,0,0,401,0,0,253,0,0,401,0,0,253,0,88,312,0,70,201,0,131,269,0,97,172,0,232,90,77,147,76,52
2017-07-22T23:59:59Z,253,399,197,140,398,252,191,135,125,98,0,0,0,0,0,0,1,397,1,252,1,395,1,250,0,0,0,0,0,0,0,0,12,299,86,11,197,66,44,355,0,34,225,1,132,265,0,99,171,0,44,355,0,34,225,0,132,265,0,99,171,0,132,265,0,99,171,0,133,265,0,100,171,0,0,399,0,3,253,1,131,267,0,97,173,1,131,266,0,97,172,1,0,399,0,0,253,1,0,399,0,0,253,1,88,309,0,70,201,1,133,264,0,99,170,1,227,93,77,145,79,52
2017-07-23T23:59:59Z,255,400,199,141,398,253,192,135,124,96,0,0,0,0,0,0,0,399,0,254,1,396,1,252,0,0,0,0,0,0,0,0,14,297,88,13,196,68,44,356,0,35,226,0,135,264,0,102,170,0,43,357,0,34,227,0,135,264,0,102,170,0,135,264,0,102,170,0,135,264,0,102,170,0,0,400,0,3,255,1,135,264,0,101,170,1,135,264,0,101,170,1,0,400,0,0,255,1,0,400,0,0,255,1,92,307,0,73,200,1,136,262,0,101,169,1,226,93,79,145,79,53
2017-07-24T23:59:59Z,260,415,202,143,413,259,195,137,131,99,0,0,0,0,0,0,2,412,1,258,1,411,1,257,0,0,0,0,0,0,0,0,15,309,90,13,200,69,47,368,0,37,230,0,140,274,0,105,173,0,46,369,0,36,231,0,140,274,0,105,173,0,140,274,0,105,173,0,140,274,0,105,173,0,0,415,0,4,260,0,129,285,0,98,182,0,137,277,0,102,175,0,0,415,0,0,260,0,0,415,0,0,260,0,83,331,0,66,213,0,135,278,0,101,175,0,237,93,83,149,80,55
2017-07-25T23:59:59Z,259,415,198,141,412,257,190,134,129,99,0,0,0,0,0,0,3,411,2,257,1,413,1,257,0,0,0,0,0,0,0,0,14,313,87,13,202,67,46,369,0,37,230,0,136,278,0,103,175,0,46,369,0,37,230,0,136,278,0,103,175,0,136,278,0,103,175,0,136,278,0,103,175,0,0,415,0,5,259,0,134,280,0,101,176,0,134,280,0,101,176,0,0,415,0,0,259,0,0,415,0,0,259,0,90,324,0,73,206,0,134,279,0,101,175,0,238,93,82,149,79,54
2017-07-26T23:59:59Z,260,415,198,143,413,258,191,138,122,96,0,0,0,0,0,0,0,414,0,259,1,413,1,258,0,0,0,0,0,0,0,0,14,312,88,13,200,69,47,368,0,38,230,0,137,277,0,106,173,0,46,369,0,37,231,0,135,279,0,104,175,0,135,279,0,104,175,0,135,279,0,104,175,0,0,415,0,5,260,0,135,279,0,104,174,0,135,279,0,104,174,0,0,415,0,0,260,0,0,415,0,0,260,0,89,325,0,74,206,0,134,279,0,103,174,0,239,93,81,149,79,55
2017-07-27T23:59:59Z,260,414,200,144,413,259,192,138,118,94,0,0,0,0,0,0,0,411,0,258,1,408,1,256,0,0,0,0,0,0,0,0,16,311,86,15,200,67,48,366,0,39,229,0,137,276,0,106,173,0,46,368,0,38,231,0,136,277,0,105,174,0,136,277,0,105,174,0,136,277,0,105,174,0,0,414,0,6,260,0,134,279,0,103,175,0,134,279,0,103,175,0,0,414,0,0,260,0,0,414,0,0,260,0,88,323,0,74,205,0,134,276,0,104,172,0,237,92,83,148,78,56
2017-07-28T23:59:59Z,258,413,198,142,412,257,190,136,121,96,0,0,0,0,0,0,3,409,2,256,1,409,1,255,0,0,0,0,0,0,0,0,13,311,88,12,199,69,46,367,0,37,229,0,136,276,0,105,172,0,46,367,0,37,229,0,135,277,0,104,173,0,135,277,0,104,173,0,135,277,0,104,173,0,0,413,0,5,258,0,134,278,0,103,173,0,134,277,1,103,173,1,0,413,0,0,258,0,0,413,0,0,258,0,89,323,0,74,204,0,132,279,0,102,173,0,238,92,81,147,78,55
2017-07-29T23:59:59Z,254,409,199,142,407,253,191,136,123,97,0,0,0,0,0,0,2,406,1,252,1,407,1,252,0,0,0,0,0,0,0,0,13,306,89,12,196,69,44,365,0,36,227,0,136,272,0,104,169,0,44,365,0,36,227,0,134,274,0,102,171,0,134,274,0,102,171,0,134,274,0,102,171,0,0,409,0,5,254,0,132,276,0,100,172,0,132,276,0,100,172,0,0,409,0,0,254,0,0,409,0,0,254,0,90,318,0,74,201,0,132,275,0,100,171,0,234,90,83,145,77,56
2017-07-30T23:59:59Z,256,410,200,143,409,255,192,137,123,97,0,0,0,0,0,0,3,406,2,254,1,404,1,252,0,0,0,0,0,0,0,0,14,306,89,13,197,69,45,365,0,37,228,0,135,274,0,103,172,0,44,366,0,36,229,0,137,272,0,105,170,0,137,272,0,105,170,0,137,272,0,105,170,0,0,410,0,5,256,0,134,275,0,102,172,0,134,275,0,102,172,0,0,410,0,0,256,0,0,410,0,0,256,0,92,317,0,76,201,0,135,273,0,103,170,0,238,89,81,147,76,55
2017-07-31T23:59:59Z,254,408,198,140,407,253,191,135,124,97,0,0,0,0,0,0,2,405,1,252,1,404,1,251,0,0,0,0,0,0,0,0,13,304,90,12,196,70,42,366,0,34,229,0,134,273,0,102,172,0,42,366,0,34,229,0,133,274,0,101,173,0,133,274,0,101,173,0,133,274,0,101,173,0,0,408,0,5,254,0,132,275,0,100,173,0,132,275,0,100,173,0,0,408,0,0,254,0,0,408,0,0,254,0,91,316,0,75,201,0,132,274,0,100,172,0,233,91,82,144,78,56
2017-08-01T23:59:59Z,255,410,201,141,407,254,193,135,126,96,0,0,0,0,0,0,0,409,0,254,1,408,1,253,0,0,0,0,0,0,0,0,14,304,91,13,197,70,41,369,0,34,231,0,135,274,0,102,173,0,41,369,0,34,231,0,135,274,0,102,173,0,135,274,0,102,173,0,135,274,0,102,173,0,0,410,0,5,255,0,132,277,0,99,175,0,132,277,0,99,175,0,0,410,0,0,255,0,0,410,0,0,255,0,92,317,0,75,203,0,135,273,0,101,172,0,233,93,82,146,79,56
2017-08-02T23:59:59Z,254,408,199,140,407,253,189,133,120,93,0,0,0,0,0,0,1,406,1,253,1,402,1,250,0,0,0,0,0,0,0,0,13,305,89,12,197,69,45,363,0,36,227,0,136,271,0,103,171,0,45,363,0,36,227,0,136,271,0,103,171,0,136,271,0,103,171,0,136,271,0,103,171,0,0,408,0,5,254,0,135,272,0,102,171,0,135,272,0,102,171,0,0,408,0,0,254,0,0,408,0,0,254,0,92,315,0,76,200,0,136,270,0,103,169,0,234,92,80,146,77,54
2017-08-03T23:59:59Z,255,410,199,139,409,254,192,134,122,94,0,0,0,0,0,0,2,407,1,253,1,408,1,253,0,0,0,0,0,0,0,0,13,309,87,12,199,67,43,367,0,35,228,0,131,277,0,100,174,0,42,367,0,34,228,0,131,277,0,100,174,0,131,277,0,100,174,0,131,277,0,100,174,0,0,410,0,5,255,0,130,278,0,99,174,0,130,278,0,99,174,0,0,410,0,0,255,0,0,410,0,0,255,0,90,319,0,74,202,0,131,277,0,100,173,0,234,93,81,145,78,54
2017-08-04T23:59:59Z,255,410,199,139,409,254,192,134,128,99,0,0,0,0,0,0,4,405,2,252,1,406,1,252,0,0,0,0,0,0,0,0,13,309,87,14,198,68,44,366,0,37,228,0,133,275,0,102,172,0,42,367,0,35,228,0,132,276,0,101,173,0,132,276,0,101,173,0,132,276,0,101,173,0,0,410,0,6,255,0,132,277,0,101,173,0,131,277,0,100,173,0,0,410,0,0,255,0,0,410,0,0,255,0,90,319,0,74,202,0,132,276,0,101,172,0,234,93,81,147,78,54
2017-08-05T23:59:59Z,254,408,200,140,404,251,193,135,122,95,0,0,0,0,0,0,4,403,2,251,1,405,1,251,0,0,0,0,0,0,0,0,13,308,86,13,198,66,42,366,0,35,227,0,131,276,0,101,173,0,40,367,0,33,228,0,130,276,0,100,173,0,130,276,0,100,173,0,130,276,0,100,173,0,0,408,0,5,254,0,130,277,0,100,173,0,129,277,0,99,173,0,0,408,0,0,254,0,0,408,0,0,254,0,90,317,0,74,201,0,132,274,0,101,171,0,232,94,80,144,79,53
2017-08-06T23:59:59Z,254,405,202,142,404,253,195,137,120,93,0,0,0,0,0,0,2,402,1,252,1,402,1,251,0,0,0,0,0,0,0,0,13,305,86,13,198,66,45,360,0,37,225,0,134,270,0,103,171,0,43,361,0,35,226,0,133,270,0,102,171,0,134,269,0,103,170,0,134,269,0,103,170,0,0,405,0,5,254,0,133,271,0,102,171,0,132,271,0,101,171,0,0,405,0,0,254,0,0,405,0,0,254,0,90,314,0,74,201,0,133,270,0,102,170,0,231,92,80,146,77,53
2017-08-07T23:59:59Z,254,408,200,140,406,252,193,135,120,94,0,0,0,0,0,0,2,405,1,252,1,401,1,249,0,0,0,0,0,0,0,0,12,308,87,12,198,67,44,364,0,36,226,0,134,273,0,103,171,0,43,364,0,35,226,0,133,273,0,102,171,0,133,273,0,102,171,0,133,273,0,102,171,0,0,408,0,5,254,0,131,276,0,100,173,0,131,276,0,100,173,0,0,408,0,0,254,0,0,408,0,0,254,0,89,318,0,73,202,0,131,275,0,100,172,0,234,92,80,147,77,53
2017-08-08T23:59:59Z,254,409,201,141,406,252,192,134,119,92,0,0,0,0,0,0,2,406,1,252,1,406,1,251,0,0,0,0,0,0,0,0,12,312,84,12,200,65,45,364,0,36,226,0,132,276,0,101,173,0,45,363,0,36,225,0,131,276,0,100,173,0,132,275,0,101,172,0,132,275,0,101,172,0,0,409,0,5,254,0,130,278,0,99,174,0,130,278,0,99,174,0,0,409,0,0,254,0,0,409,0,0,254,0,87,321,0,72,203,0,131,276,0,100,172,0,238,93,78,147,79,52
2017-08-09T23:59:58Z,253,409,198,140,406,252,189,133,122,94,0,0,0,0,0,0,2,403,1,251,1,406,1,250,0,0,0,0,0,0,0,0,12,307,86,11,198,67,43,364,0,34,226,0,133,273,0,102,172,0,42,364,0,33,226,0,135,272,0,103,171,0,135,272,0,103,171,0,135,272,0,103,171,0,0,409,0,4,253,0,135,273,0,102,172,0,135,273,0,102,172,0,0,409,0,0,253,0,0,409,0,0,253,0,90,316,0,74,201,0,132,273,0,100,172,0,235,94,76,145,79,51
2017-08-10T23:59:59Z,257,417,200,141,413,256,190,133,124,97,0,0,0,0,0,0,4,409,2,254,1,414,1,254,0,0,0,0,0,0,0,0,11,313,89,10,201,68,46,369,0,36,228,0,138,276,0,104,173,0,45,369,0,35,228,0,139,276,0,104,173,0,139,276,0,104,173,0,139,276,0,104,173,0,0,417,0,4,257,0,139,277,0,104,173,0,140,276,0,105,172,0,0,417,0,0,257,0,0,417,0,0,257,0,91,323,0,73,205,0,134,279,0,102,174,0,243,93,77,150,78,51
2017-08-11T23:59:59Z,256,416,198,140,412,255,188,132,126,96,0,0,0,0,0,0,4,408,2,253,1,408,1,250,0,0,0,0,0,0,0,0,11,314,87,10,201,67,44,370,0,35,228,0,134,279,0,102,174,0,43,370,0,34,228,0,135,279,0,102,174,0,135,279,0,102,174,0,135,279,0,102,174,0,0,416,0,4,256,0,135,280,0,102,174,0,134,281,0,101,175,0,0,416,0,0,256,0,0,416,0,0,256,0,91,322,0,74,203,0,130,281,1,99,175,1,239,96,77,146,82,51
2017-08-12T23:59:59Z,254,411,197,140,406,252,188,133,118,92,0,0,0,0,0,0,4,403,2,251,1,406,1,250,0,0,0,0,0,0,0,0,12,309,86,11,198,67,46,363,0,36,225,0,135,273,0,103,171,0,44,364,0,34,226,0,136,273,0,103,171,0,136,273,0,103,171,0,136,273,0,103,171,0,0,411,0,4,254,0,134,276,0,101,173,0,134,276,0,101,173,0,0,411,0,0,254,0,0,411,0,0,254,0,91,317,0,75,200,0,133,274,0,101,171,0,238,94,75,147,79,50
2017-08-13T23:59:59Z,254,413,198,140,409,252,189,133,122,96,0,0,0,0,0,0,2,407,1,252,1,408,1,250,0,0,0,0,0,0,0,0,11,310,88,10,198,68,47,364,0,37,225,0,138,272,0,105,170,0,46,364,0,36,225,0,138,273,0,104,171,0,138,273,0,104,171,0,138,273,0,104,171,0,0,413,0,4,254,0,138,274,0,104,171,0,138,274,0,104,171,0,0,413,0,0,254,0,0,413,0,0,254,0,90,320,0,73,202,0,136,273,0,103,170,0,238,94,77,146,79,51